Weather History for Kenosha, WI

Change the Weather History Date:

Saturday, December 21, 2013

  Actual Average Record
Temperature  
Mean Temperature 31 °F -  
Max Temperature 34 °F 31 °F 58 °F (1949)
Min Temperature 28 °F 15 °F -16 °F (1989)
Degree Days  
Heating Degree Days 34    
Moisture  
Dew Point 28 °F    
Average Humidity 91    
Maximum Humidity 96    
Minimum Humidity 85    
Precipitation  
Precipitation 0.04 in - - ()
Sea Level Pressure  
Sea Level Pressure 29.79 in    
Wind  
Wind Speed 8 mph (North)    
Max Wind Speed 21 mph    
Max Gust Speed 32 mph    
Visibility 2 miles    
Events Fog , Rain , Snow    
Averages and records for this station are not official NWS values.
T = Trace of Precipitation, MM = Missing Value Source: NWS Daily Summary

Daily Weather History Graph

Daily Weather History Graph

Search for Another Location

Airport:

Trip Planner

Search our weather history database for the weather conditions in past years. The results will help you decide how hot, cold, wet, or windy it might be!

Date:

Astronomy

Dec. 21, 2013 Rise Set
Actual Time 7:18 AM CST 4:21 PM CST
Civil Twilight 6:46 AM CST 4:53 PM CST
Nautical Twilight 6:10 AM CST 5:29 PM CST
Astronomical Twilight 5:36 AM CST 6:03 PM CST
Moon 8:42 PM CST 9:40 AM CST
Length of Visible Light 10h 07m
Length of Day
9h 03m
Waning Gibbous, 84% of the Moon is Illuminated
Dec 21
Waning Gibbous
Dec 25
Last Quarter
Jan 1
New
Jan 7
First Quarter
Jan 15
Full

Hourly Weather History & Observations

Time (CST) Temp. Windchill Dew Point Humidity Pressure Visibility Wind Dir Wind Speed Gust Speed Precip Events Conditions
12:53 AM 28.9 °F 21.9 °F 27.0 °F 92% 29.79 in 1.8 mi NNW 6.9 mph - N/A   Overcast
1:53 AM 28.9 °F 22.8 °F 27.0 °F 92% 29.81 in 1.8 mi WNW 5.8 mph - N/A   Overcast
2:53 AM 28.0 °F 21.7 °F 26.1 °F 92% 29.85 in 1.8 mi WNW 5.8 mph - N/A   Overcast
3:53 AM 28.0 °F 21.7 °F 26.1 °F 92% 29.81 in 1.2 mi NNW 5.8 mph - N/A   Overcast
4:53 AM 28.0 °F 21.7 °F 26.1 °F 92% 29.81 in 1.0 mi NNW 5.8 mph - N/A   Overcast
5:16 AM 28.0 °F 22.8 °F 26.1 °F 92% 29.79 in 0.8 mi North 4.6 mph - N/A   Overcast
5:28 AM 28.0 °F 20.8 °F 26.1 °F 92% 29.80 in 1.0 mi NNW 6.9 mph - N/A   Overcast
5:53 AM 28.0 °F 20.8 °F 26.1 °F 92% 29.84 in 1.2 mi NNW 6.9 mph - N/A   Overcast
6:11 AM 28.0 °F 24.2 °F 26.1 °F 92% 29.82 in 0.8 mi NNW 3.5 mph - N/A   Overcast
6:53 AM 28.0 °F - 26.1 °F 92% 29.86 in 1.0 mi Calm Calm - N/A   Overcast
7:17 AM 28.0 °F - 27.0 °F 96% 29.82 in 0.5 mi Calm Calm - N/A Fog Light Freezing Fog
7:53 AM 28.0 °F 22.8 °F 26.1 °F 92% 29.84 in 0.5 mi North 4.6 mph - N/A Fog Light Freezing Fog
8:00 AM 28.0 °F 21.7 °F 26.1 °F 92% 29.80 in 0.2 mi North 5.8 mph - N/A Fog Light Freezing Fog
8:53 AM 28.9 °F 23.9 °F 27.0 °F 92% 29.84 in 0.2 mi North 4.6 mph - N/A Fog Light Freezing Fog
9:53 AM 30.0 °F 21.7 °F 27.0 °F 88% 29.87 in 0.2 mi NNW 9.2 mph - N/A Fog Light Freezing Fog
10:12 AM 30.0 °F 23.2 °F 28.0 °F 92% 29.86 in 0.5 mi NNW 6.9 mph - N/A Fog Light Freezing Fog
10:53 AM 30.0 °F 23.2 °F 28.0 °F 92% 29.86 in 0.5 mi NNW 6.9 mph - N/A Fog Light Freezing Fog
11:06 AM 30.0 °F 22.4 °F 28.0 °F 92% 29.83 in 0.2 mi North 8.1 mph - N/A Fog Light Freezing Fog
11:20 AM 30.0 °F 22.4 °F 28.0 °F 92% 29.82 in 0.5 mi North 8.1 mph - N/A Fog Light Freezing Fog
11:53 AM 30.9 °F 24.3 °F 28.9 °F 92% 29.85 in 0.5 mi North 6.9 mph - N/A Fog Light Freezing Fog
12:53 PM 30.9 °F 24.3 °F 28.9 °F 92% 29.86 in 0.2 mi North 6.9 mph - N/A Fog Light Freezing Fog
1:51 PM 32.0 °F 24.8 °F 30.2 °F 93% 29.80 in 0.5 mi North 8.1 mph - N/A Fog Fog
1:53 PM 32.0 °F 24.2 °F 30.0 °F 92% 29.82 in 0.5 mi North 9.2 mph - N/A Fog Fog
2:53 PM 32.0 °F 24.8 °F 30.0 °F 92% 29.81 in 1.2 mi North 8.1 mph - N/A   Overcast
3:53 PM 32.0 °F 24.2 °F 30.0 °F 92% 29.83 in 1.5 mi North 9.2 mph - N/A   Overcast
4:53 PM 32.0 °F 23.6 °F 30.0 °F 92% 29.83 in 1.5 mi North 10.4 mph - N/A   Overcast
5:53 PM 34.0 °F 25.0 °F 30.9 °F 89% 29.81 in 1.5 mi ENE 12.7 mph - N/A   Overcast
6:00 PM 34.0 °F 25.0 °F 30.9 °F 89% 29.78 in 7.0 mi NE 12.7 mph - N/A   Overcast
6:53 PM 34.0 °F 24.2 °F 30.9 °F 89% 29.81 in 5.0 mi ENE 15.0 mph - 0.00 in Rain Light Rain
7:53 PM 34.0 °F 24.6 °F 32.0 °F 92% 29.77 in 5.0 mi NE 13.8 mph - 0.02 in Rain Light Rain
8:53 PM 34.0 °F 24.6 °F 30.9 °F 89% 29.76 in 4.0 mi NE 13.8 mph 23.0 mph 0.00 in   Overcast
9:10 PM 34.0 °F 23.8 °F 30.9 °F 89% 29.73 in 2.0 mi NE 16.1 mph 24.2 mph 0.01 in Snow Light Snow
9:17 PM 34.0 °F 23.4 °F 30.9 °F 89% 29.72 in 1.5 mi NE 17.3 mph - 0.01 in Snow Light Snow
9:53 PM 33.1 °F 22.2 °F 30.0 °F 89% 29.75 in 0.8 mi NE 17.3 mph - 0.02 in Snow Light Snow
10:12 PM 33.1 °F 21.2 °F 30.0 °F 89% 29.68 in 1.0 mi NE 20.7 mph 27.6 mph 0.00 in Snow Light Snow
10:53 PM 32.0 °F 19.8 °F 30.0 °F 92% 29.65 in 1.8 mi ENE 20.7 mph 32.2 mph 0.00 in Snow Light Snow
11:15 PM 32.0 °F 20.1 °F 28.9 °F 88% 29.62 in 2.5 mi NE 19.6 mph 29.9 mph 0.00 in Snow Light Snow
11:26 PM 33.1 °F 23.4 °F 28.9 °F 85% 29.70 in 3.0 mi NE 13.8 mph 27.6 mph 0.00 in Snow Light Snow
11:53 PM 33.1 °F 22.2 °F 28.9 °F 85% 29.70 in 4.0 mi ENE 17.3 mph 26.5 mph 0.00 in   Overcast